Simultaneous Nadir Overpasses (SNOs) Predictions

Prediction of SNOs over PacNW region [( 10.00, 139.50) to ( 22.70, 165.60)] between AQUA and NPP Satellites:

Table of predicted SNOs over PacNW region for the next 30.0 days since TLE Epoch: 6/29/2019
Index Date (AQUA) Time (AQUA) AQUA Lat,Lon Date (NPP) Time (NPP) NPP Lat,Lon Distance(km) Time Diff (sec)
1 07/01/2019 15:09:52 22.61, 159.85 07/01/2019 15:11:17 23.17, 157.19 279.68 85
2 07/04/2019 03:31:41 22.67, 147.54 07/04/2019 03:28:12 25.01, 145.12 358.24 209
3 07/09/2019 15:59:16 22.63, 147.50 07/09/2019 16:02:02 23.29, 144.53 312.68 166
4 07/17/2019 15:09:47 22.60, 159.86 07/17/2019 15:11:20 23.22, 157.20 280.96 93
5 07/20/2019 03:31:36 22.68, 147.54 07/20/2019 03:28:06 24.39, 145.27 299.29 210
6 07/25/2019 15:59:10 22.60, 147.50 07/25/2019 16:02:06 23.25, 144.52 314.36 176




NCC Satellite Simultaneous Nadir Overpasses (SNOs) Prediction Service
